#timestamp,LO_Frequency,Hit,StdDev 
1694606415.7,286046998.7,N
1694606435.5,286046998.7,N
1694606455.3,286046998.3,N
1694606475.2,286046999.1,N
1694606495.0,286046999.5,N
1694606495.9,286046999.5,N
1694606515.8,286046996.5,N
1694606535.6,286046999.3,N
1694606555.4,286046996.8,N
1694606575.3,286046996.7,N
1694606595.1,286046999.6,N
1694606615.9,286046996.7,N
1694606635.7,286046996.6,N
1694606655.5,286046999.2,N
1694606675.4,286046999.2,N
1694606695.2,286046999.4,N
1694606715.1,286046997.0,N
1694606716.0,286046997.0,N
1694606735.8,286046997.7,N
1694606755.6,286046996.8,N
1694606775.5,286046996.6,N
1694606795.3,286046997.0,N
1694606815.1,286046997.6,N
1694606835.9,286046997.4,N
1694606855.7,286046995.4,Y
1694606875.6,286046996.9,P
1694606895.4,286046996.8,P
1694606915.2,286046997.4,P
1694606935.1,286046997.5,Y
1694606936.0,286046997.5,P
1694606955.8,286046998.1,P
1694606975.7,286047000.9,N
1694606995.5,286047000.7,N
1694607015.3,286046998.5,N
1694607035.2,286046998.4,N
1694607055.0,286047000.7,N
1694607055.9,286047000.7,N
1694607075.8,286047001.1,N
1694607095.6,286046998.4,N
1694607115.4,286047001.2,N
1694607135.3,286047001.0,N
1694607155.1,286046998.8,N
1694607175.8,286046999.0,N
1694607195.7,286046998.9,N
1694607215.5,286046999.5,N
1694607235.4,286046998.5,N
1694607255.2,286046999.6,N
1694607275.0,286046999.0,N
1694607275.9,286046999.0,N
1694607295.8,286046999.3,N
1694607315.6,286046999.1,N
1694607335.5,286046999.5,N
1694607355.3,286046998.9,N
1694607375.1,286047001.1,N
1694607395.9,286046998.9,N
1694607415.7,286046998.3,N
1694607435.5,286046999.6,N
1694607455.4,286046997.4,N
1694607475.2,286046997.0,N
1694607495.1,286046999.6,N
1694607496.0,286046999.6,N
1694607515.8,286046996.7,Y
1694607535.6,286046998.9,P
1694607555.5,286046999.6,N
1694607575.3,286046996.8,P
1694607595.1,286046998.8,N
1694607615.9,286046999.5,N
1694607635.7,286046997.1,Y
1694607655.6,286046998.9,P
1694607675.4,286046999.1,P
1694607695.2,286046996.5,P
1694607715.1,286046998.6,N
1694607746.0,286046998.8,E
1694607755.0,286046998.4,N
1694607755.9,286046998.4,P
1694607775.8,286046998.5,P
1694607795.6,286047001.0,Y
1694607815.4,286047002.0,P
1694607835.3,286047000.3,N
1694607855.1,286047000.2,N
1694607875.9,286047000.0,N
1694607895.7,286047000.0,N
1694607915.5,286046999.8,N
1694607935.4,286047002.1,N
1694607955.2,286047000.3,N
1694607975.0,286047000.1,N
1694607976.0,286047000.1,N
1694607995.8,286047002.3,N
1694608015.6,286047000.2,N
1694608035.5,286046999.7,N
1694608055.3,286047000.0,N
1694608075.1,286047000.3,N
1694608095.9,286046999.9,N
1694608115.7,286047002.8,N
1694608135.6,286046999.9,N
1694608155.4,286047000.0,N
1694608175.2,286047000.5,N
1694608195.1,286047000.2,N
1694608196.0,286047000.2,N
1694608215.8,286047002.8,N
1694608235.7,286047002.3,N
1694608255.5,286047002.7,N
1694608275.3,286047002.0,N
1694608295.2,286047002.2,N
1694608315.9,286046999.7,N
1694608335.7,286047002.4,N
1694608355.6,286046999.8,N
1694608375.4,286047000.4,N
1694608395.3,286047000.3,N
1694608415.1,286047000.4,N
1694608416.0,286047000.4,N
1694608435.8,286047000.4,N
1694608455.7,286047001.1,N
1694608475.5,286047000.7,N
1694608495.3,286047000.7,N
1694608515.2,286047000.6,N
1694608535.0,286047000.4,N
1694608535.9,286047000.4,N
1694608555.8,286047000.5,N
1694608575.6,286047000.4,N
1694608595.4,286047000.8,N
1694608615.3,286047001.2,N
1694608635.1,286046999.7,N
1694608655.8,286047000.3,N
1694608675.7,286046999.8,N
1694608695.5,286047000.3,N
1694608715.4,286047000.4,N
1694608735.2,286047000.0,N
1694608755.0,286047002.6,N
1694608755.9,286047002.6,N
1694608775.8,286047002.6,N
1694608795.6,286047000.2,N
1694608815.4,286046999.9,N
1694608835.3,286047000.4,N
1694608855.1,286046999.9,N
1694608875.9,286047000.3,N
1694608895.7,286047000.8,N
1694608915.5,286047000.1,N
1694608935.4,286047000.3,N
1694608955.2,286047001.2,N
1694608975.0,286047000.6,N
1694608975.9,286047000.6,N
1694608995.8,286047001.0,N
1694609015.6,286047000.9,N
1694609035.5,286047001.1,N
1694609055.3,286047000.4,N
1694609075.1,286047002.8,Y
1694609095.9,286047001.0,P
1694609115.7,286047000.3,N
1694609135.6,286047001.2,P
1694609155.4,286046998.1,Y
1694609175.2,286046998.1,P
1694609195.1,286046998.1,N
1694609196.0,286046998.1,N
1694609215.8,286046998.4,N
1694609235.7,286046999.4,N
1694609255.5,286046998.5,N
1694609275.3,286047001.2,N
1694609295.2,286047000.0,N
1694609315.0,286047000.8,N
1694609315.9,286047000.8,N
1694609335.7,286047002.7,N
1694609355.6,286047000.0,N
1694609375.4,286047000.8,N
1694609395.3,286047000.3,N
1694609415.1,286047001.0,N
1694609416.0,286047001.0,N
1694609435.8,286047001.2,N
1694609455.7,286046998.1,N
1694609475.5,286046998.1,N
1694609495.3,286047001.1,N
1694609515.2,286047000.7,N
1694609535.0,286047001.0,N
1694609535.9,286047001.0,N
1694609555.8,286047000.5,N
1694609575.6,286047000.3,N
1694609595.4,286046998.5,N
1694609615.3,286047001.0,N
1694609635.1,286047000.8,N
1694609655.8,286047000.5,N
1694609675.7,286047000.7,N
1694609695.5,286046999.9,N
1694609715.4,286047002.4,N
1694609735.2,286047000.1,N
1694609755.0,286047002.7,N
1694609755.9,286047002.7,N
1694609775.8,286047002.7,N
1694609795.6,286047002.2,N
1694609815.4,286047002.7,N
1694609835.3,286047002.3,N
1694609855.1,286047001.6,N
1694609875.9,286047002.1,N
1694609895.7,286047002.1,N
1694609915.5,286047002.6,N
1694609935.4,286047003.9,Y
1694609955.2,286047001.9,P
1694609975.0,286047001.5,P
1694609975.9,286047001.5,P
1694609995.8,286047001.9,Y
